User: anonymous   Login
Location: NJAA Observatory
(40.6819°N, 74.8979°W)
Time: 10:40:02
(UTC-04:00)
Language:

Cosmos 1461 - Orbit

View from above orbital plane
View from above orbital plane
View from above satellite
View from above satellite

Ground track
Ground track

The orbit data is extracted from the following two-line orbital elements,

1 14064U 83044A   14296.73446213  .00004473  00000-0  44787-3 0  6691
2 14064 065.0068 031.8348 0094342 063.1188 297.9529 14.89347203578990
Epoch (UTC): 23 October 2014 17:37:37
Eccentricity: 0.0094342
inclination: 65.0068°
perigee height: 534 km
apogee height: 666 km
right ascension of ascending node: 31.8348°
argument of perigee: 63.1188°
revolutions per day: 14.89347203
mean anomaly at epoch: 297.9529°
orbit number at epoch: 57899

The dashed part of the orbit path shows where the satellite is in the earth's shadow,  

DLR